伽利略0225星导航星座 (GSAT0225 (GALILEO 29))

导读 | 豆包AI

GALILEO 29 (10C)是欧洲空间局(ESA)推出的伽利略导航系统卫星,于2024年4月28日发射升空。该卫星旨在补充、完善伽利略全球卫星导航系统的星座布局,提升系统定位精度、可靠性与全球覆盖能力,为民用、商用等领域提供独立且高精度的定位导航授时服务,进一步巩固欧洲在全球卫星导航领域的自主地位。

Basic Information
目录编号:
59598
目录名称:
GALILEO 29 (10C)
国际标识:
2024-079A
轨道中心:
EARTH
卫星名称:
伽利略0225星
卫星全名:
伽利略0225星导航星座 (GSAT0225 (GALILEO 29))
卫星状态:
在轨 (已飞行730 天)
发射日期:
2024-04-28 UTC
国别 :
(ESA)
星等 :
--
Orbit Information
数据来源 国际轨道数据 AOE轨道数据
星历时间 2026-04-27T16:56:42+0800
1天前
查看轨道信息
2026-04-24T09:00:00+0800
4天前
查看轨道信息
半长轴 29600.274km 29600.309km
偏心率 0.0002632 0.0002803
轨道倾角 55.088° 55.086°
近地点辐角 284.703° 280.461°
升交点赤经 102.498° 102.591°
平近点角 74.914° 194.816°
近地点 23214.346km 23213.875km
远地点 23229.928km 23230.469km
周期 844.702分钟 844.703分钟
每日圈数 1.704744 1.704741
Detailed Information
平衡模式:
三轴稳定
覆盖范围:
全球
运营商:
欧盟空间计划局
运营商所在国:
法国大都会
使用方式:
暂无
Satellite Introduction
伽利略定位系统(Galileo)是一个全球导航卫星系统,于2016年投入使用由欧盟通过ESA创建,由欧盟空间计划局(EUSPA)运营。该系统有两个地面操控站,并且在高纬度地区提供比其他系统更好的定位服务。该卫星仍在工作。
2D Orbit Map
3D Orbit Map
Orbit Altitude Analysis Chart
Orbit Inclination Analysis Chart
Orbit Comprehensive Analysis Chart
View Comprehensive Chart